Regional Weather Roundup
Issued by NWS

Home | Current Version | Previous Version | Graphics & Text | Print | Product List | Glossary On
Versions: 1 2 3 4 5 6 7 8 9 10 11 12 13 14 15 16 17 18 19 20 21 22 23 24 25 26 27 28 29 30 31 32 33 34 35 36 37 38 39 40 41 42 43 44 45 46 47 48 49 50
000
ASUS45 KPSR 040110
RWRAZ

ARIZONA HOURLY REGIONAL WEATHER ROUNDUP
NATIONAL WEATHER SERVICE PHOENIX AZ
600 PM MST THU SEP 03 2015

NOTE: FAIR INDICATES FEW OR NO CLOUDS BELOW 12,000 FEET WITH NO
SIGNIFICANT WEATHER AND/OR OBSTRUCTIONS TO VISIBILITY.

AZZ001>003-036-040200-
NORTHWEST ARIZONA

CITY           SKY/WX    TMP DP  RH WIND       PRES   REMARKS
BULLHEAD CITY  SUNNY    100  37  11 S18G26    29.64S
KINGMAN        SUNNY     89  31  12 SW21G29   29.86S
$$

AZZ004>008-015-016-018-040200-
NORTH CENTRAL ARIZONA

CITY           SKY/WX    TMP DP  RH WIND       PRES   REMARKS
GRAND CANYON   PTCLDY    74  37  26 SW13G23   30.11R
WILLIAMS       PTCLDY    72  36  26 SW16G24   30.18S
PRESCOTT       PTSUNNY   79  43  27 S13G23    30.03S
FLAGSTAFF      CLEAR     70  42  36 SW16      30.16S
PAYSON         PTCLDY    79  48  34 SW8G15    30.07R
PAGE           CLEAR     89  33  13 S6        29.87S
$$

AZZ009>014-017-040200-
NORTHEAST ARIZONA

CITY           SKY/WX    TMP DP  RH WIND       PRES   REMARKS
WINSLOW        TSTM      67  58  72 SE18G33   30.05R
SAINT JOHNS    CLOUDY    65  54  67 S9        30.14S
WINDOW ROCK    CLOUDY    72  46  39 S12       30.14S
SHOW LOW       CLOUDY    64  48  55 SE13      30.16S
$$

AZZ023-040200-
GREATER PHOENIX AREA

CITY           SKY/WX    TMP DP  RH WIND       PRES   REMARKS
PHOENIX        MOCLDY    80  67  64 S28G43    29.81R
BUCKEYE        CLOUDY    84  64  51 S24G37    29.80R
GLENDALE       MOCLDY    88  66  48 E28G38    29.79R BLWGDUST
LUKE AFB       PTSUNNY   88  66  47 SE24G37   29.76R
DEER VALLEY    LGT RAIN  85  62  46 S28G40    29.79R
SCOTTSDALE     MOCLDY    84  64  50 S12G31    29.84R
MESA-FALCON    MOCLDY    81  64  57 SE23      29.84R
MESA-GATEWAY   MOCLDY    81  66  61 S18G24    29.89R
CHANDLER       MOCLDY    81  66  61 SE29      29.86  BLWGDUST
$$

AZZ027-028-040200-
SOUTHWEST MARICOPA COUNTY AND PINAL COUNTY

CITY           SKY/WX    TMP DP  RH WIND       PRES   REMARKS
CASA GRANDE    CLOUDY    73  66  78 S15G21    29.85F
GILA BEND      CLOUDY    82  66  57 SE39G46   29.77R BLWGDUST
$$

AZZ503-504-507>509-040200-
SOUTHEAST ARIZONA

CITY           SKY/WX    TMP DP  RH WIND       PRES   REMARKS
TUCSON         LGT RAIN  70  65  84 E7        30.02S
DAVIS-MONTHAN  LGT RAIN  69  65  89 SE6       30.01R
RYAN FIELD     CLEAR     73  70  88 E8        30.00S
NOGALES        LGT RAIN  67  64  90 N3        30.06F
SIERRA VISTA   MOCLDY    64  61  91 N8        30.13S
DOUGLAS        CLOUDY    72  60  66 CALM      30.06S
SAFFORD        CLOUDY    81  59  47 E7        29.93S
$$

AZZ020-021-025-026-031-040200-
SOUTHWEST ARIZONA

CITY           SKY/WX    TMP DP  RH WIND       PRES   REMARKS
YUMA           MOSUNNY  102  52  18 S15       29.65S
$$

CAZ031-033-041-043-047-048-061-040200-
SOUTHERN CALIFORNIA

CITY           SKY/WX    TMP DP  RH WIND       PRES   REMARKS
DOWNTOWN L.A.  SUNNY     74  56  53 VRB3      29.82S
L.A. AIRPORT   MOSUNNY   71  58  63 SW9       29.83S
SAN DIEGO      MOSUNNY   73  57  57 W9        29.85F
BURBANK        SUNNY     74  56  53 S9        29.81F
ONTARIO        SUNNY     78  56  46 W16       29.81S
RIVERSIDE      SUNNY     80  56  43 W13G18    29.80S
PALM SPRINGS   SUNNY     97  42  15 NW22G28   29.67F
EL CENTRO NAS  MOSUNNY  101  39  12 W20       29.65S
IMPERIAL       SUNNY    101  42  13 W15       29.62S
BLYTHE         SUNNY    103  36  10 SW15      29.64F
NEEDLES        FAIR     102  40  12 S15G21    29.66F
$$

NVZ020-UTZ003-040200-
SOUTHERN NEVADA-UTAH

CITY           SKY/WX    TMP DP  RH WIND       PRES   REMARKS
LAS VEGAS      MOSUNNY   96  32  10 W14G22    29.66F
SALT LAKE CITY MOCLDY    88  30  12 S17G35    29.74F
$$

NMZ009-TXZ055-040200-
NEW MEXICO-WEST TEXAS

CITY           SKY/WX    TMP DP  RH WIND       PRES   REMARKS
ALBUQUERQUE    MOCLDY    84  43  23 SW14      30.02R
EL PASO        CLOUDY    86  48  26 NW8       29.96R
$$


........................KEY........................
SKY/WX - SKY CONDITION/WEATHER
TMP    - TEMPERATURE IN FAHRENHEIT
DP     - DEW POINT IN FAHRENHEIT
RH     - RELATIVE HUMIDITY IN PERCENT
WIND   - DIRECTION AND SPEED IN MILES PER HOUR (MPH)
VRB    - VARIABLE WIND DIRECTION
PRES   - MEAN SEA LEVEL PRESSURE IN INCHES OF MERCURY
         F - FALLING PRESSURE   R - RISING PRESSURE
         S - STEADY PRESSURE
VSB    - VISIBILITY IN MILES
HX     - HEAT INDEX IN FAHRENHEIT
WCI    - WIND CHILL INDEX IN FAHRENHEIT
TC     - TEMPERATURE IN CELSIUS WHICH IS ALSO KNOWN AS
         TEMPERATURE IN CENTIGRADE
AFB    - AIR FORCE BASE
         LUKE AFB IS LUKE AIR FORCE BASE
         DAVIS-MONTHAN IS DAVIS-MONTHAN AIR FORCE BASE
NAS    - NAVAL AIR STATION
         EL CENTRO NAS IS EL CENTRO NAVAL AIR STATION
N/A    - NOT AVAILABLE




USA.gov is the U.S. government's official web portal to all federal, state and local government web resources and services.